Regional Weather Roundup
Issued by NWS

Home | Current Version | Previous Version | Text Only | Print | Product List | Glossary On
Versions: 1 2 3 4 5 6 7 8 9 10 11 12 13 14 15 16 17 18 19 20 21 22 23 24 25 26 27 28 29 30 31 32 33 34 35 36 37 38 39 40 41 42 43 44 45 46 47 48 49 50
000
ASUS43 KIND 010059
RWRIN

WEATHER ROUNDUP FOR INDIANA
NATIONAL WEATHER SERVICE INDIANAPOLIS IN
900 PM EDT SUN APR 30 2017

NOTE: "FAIR" INDICATES FEW OR NO CLOUDS BELOW 12,000 FEET WITH NO
SIGNIFICANT WEATHER AND/OR OBSTRUCTIONS TO VISIBILITY.

* - STATION DOES NOT REPORT WEATHER SUCH AS PRECIPITATION OR FOG.

+ - STATION NOT QUALITY CONTROLLED BY THE NATIONAL WEATHER SERVICE.
    USE DATA WITH CAUTION...ESPECIALLY DEWPOINT AND RELATIVE
    HUMIDITY OBSERVATIONS.

INZ001>003-010>013-019-020-010200-
NORTHWEST INDIANA

CITY           SKY/WX    TMP DP  RH WIND       PRES   REMARKS
GARY /AIRPORT/ LGT RAIN  46  46 100 NE5       29.69F
MONTICELLO +   MOCLDY    64  62  94 CALM      29.65F
RENSSELAER +   CLOUDY    64  61  88 E7        29.64F

$$

LMZ046-743>745-010200-
SOUTHERN LAKE MICHIGAN

STATION/POSITION TIME  TEMP    WIND        PRES    WAVE
                       AIR SEA DIR/SP/G            HT
                 (UTC) (F)     (DEG/KT/KT) (MB)    (FT)
BURNS HARBOR     0040   49      60/  9/ 10 1005.4F
MICHIGAN CITY    0030   49      60/  5/  6   N/A
5NW MICH CITY    0050   49 48                N/A     3

$$

INZ004-005-014>016-021>024-010200-
NORTH CENTRAL INDIANA

CITY           SKY/WX    TMP DP  RH WIND       PRES   REMARKS
GOSHEN         LGT RAIN  64  61  90 E7        29.70F
SOUTH BEND     LGT RAIN  63  63 100 E7        29.69F

$$

INZ006>009-017-018-025>027-010200-
NORTHEAST INDIANA

CITY           SKY/WX    TMP DP  RH WIND       PRES   REMARKS
ANGOLA *+      MOCLDY    63  55  77 CALM      29.75F
FORT WAYNE     LGT RAIN  63  62  97 E12       29.73F FOG
KENDALLVILLE + RAIN      63  63 100 SE6       29.74F

$$

INZ028-029-035-036-043>045-051>053-010200-
WEST CENTRAL INDIANA

CITY           SKY/WX    TMP DP  RH WIND       PRES   REMARKS
CRAWFORDSVL +  MOCLDY    65  65 100 SE13      29.65F
GREENCASTLE +  CLOUDY    64  64 100 SE8       29.66F
LAFAYETTE      CLOUDY    63  63 100 E7        29.63F
TERRE HAUTE    CLOUDY    69  65  86 SE9       29.63F

$$

INZ030>032-037>040-046>048-054>057-064-065-010200-
CENTRAL INDIANA

CITY           SKY/WX    TMP DP  RH WIND       PRES   REMARKS
COLUMBUS       CLOUDY    73  59  60 S21G30    29.70F
INDIANAPOLIS   CLOUDY    65  64  97 SE10      29.67F
-EAGLE CREEK   CLOUDY    65  63  93 SE6       29.67F
KOKOMO +       CLOUDY    64  63  96 SE15      29.68F
SHELBYVILLE    CLOUDY    67  63  87 E6        29.69F

$$

INZ033-034-041-042-049-050-058-059-010200-
EAST CENTRAL INDIANA

CITY           SKY/WX    TMP DP  RH WIND       PRES   REMARKS
MUNCIE         CLOUDY    66  63  90 E3        29.72F
RICHMOND +     CLOUDY    72  61  68 S29G35    29.76R

$$

INZ060-061-067>069-081>083-085>088-010200-
SOUTHWEST INDIANA

CITY           SKY/WX    TMP DP  RH WIND       PRES   REMARKS
EVANSVILLE     CLOUDY    72  62  71 S16G24    29.67F

$$

INZ062-063-066-070>080-084-089>092-010200-
SOUTH CENTRAL AND SOUTHEAST INDIANA

CITY           SKY/WX    TMP DP  RH WIND       PRES   REMARKS
BLOOMINGTON    CLOUDY    68  64  87 S6        29.68F
MADISON *+     CLOUDY    70  59  68 S14       29.78F
SEYMOUR +      CLOUDY    75  61  60 S16G25    29.72S

$$




USA.gov is the U.S. government's official web portal to all federal, state and local government web resources and services.